Location: Bergnerzell
(49.1816°N, 10.2565°E)
Time: 05:25:56
(UTC+00:00)

IDEFIX/ARIANE 42P - Pass Details

Date: 13 August 2024
Orbit: 782 x 799 km, 98.5° (Epoch: 08 September)

Event Time Altitude Azimuth Distance (km) Brightness Sun altitude
Rises 01:11:13 0° 14° (NNE) 3,284 7.1 -22.0°
Reaches altitude 10° 01:13:33 10° 15° (NNE) 2,352 6.1 -21.8°
Maximum altitude 01:18:46 86° 105° (ESE) 794 2.5 -21.4°
Enters shadow 01:20:24 45° 192° (SSW) 1,059 2.8 -21.2°
